Theta_e
311 311 312 311 313 312 311 311 311 313 313 315 314 315 314 313 310 309 311 311 309 310 310 309 310 308 307 306 303 301 299 299 298 297 297 296 296 295 294 294 293 293 292 292
313 313 312 311 311 313 313 313 313 313 312 312 312 313 313 311 313 313 312 310 310 310 307 306 307 306 305 304 302 300 299 299 298 297 296 295 295 295 294 293 293 292 291 291
312 312 314 314 314 314 313 312 313 312 312 310 311 312 312 311 312 312 312 312 311 311 306 305 303 304 303 301 300 299 299 299 298 297 296 295 294 294 293 293 292 292 291 290
311 312 312 312 313 313 314 311 312 313 313 314 311 314 311 312 311 311 312 311 311 308 305 304 303 303 302 301 300 299 299 298 297 296 295 294 294 293 293 292 292 291 291 290
312 312 311 312 312 311 314 312 311 313 313 313 314 315 314 311 310 310 310 311 310 307 303 303 303 304 303 301 299 299 299 297 296 296 295 294 293 293 293 292 292 291 291 290
309 310 312 311 310 310 310 312 311 310 309 314 313 314 312 310 311 310 311 310 309 308 304 303 303 304 301 299 299 298 297 296 296 296 295 295 293 292 292 292 291 291 290 289
308 309 309 310 312 309 310 311 313 312 312 315 310 312 314 311 309 309 310 310 309 306 304 301 300 300 299 298 298 297 296 295 296 296 295 294 293 292 292 292 291 290 290 289
310 310 309 308 311 310 309 312 313 311 312 313 308 311 311 310 311 308 308 308 306 305 304 302 302 300 299 298 297 297 296 295 295 295 294 294 293 292 292 292 291 290 290 290
310 311 309 308 309 310 310 312 311 314 298 309 313 310 309 309 308 307 306 305 305 304 303 302 299 299 298 298 297 297 296 296 295 295 294 294 293 292 292 292 291 290 290 290
310 312 309 307 307 307 309 308 312 312 313 311 313 311 312 310 310 309 307 304 303 303 303 302 300 299 298 298 298 297 297 296 295 294 294 293 293 293 292 291 291 290 290 289
309 311 312 306 307 310 307 309 309 310 312 315 314 313 309 308 307 309 307 304 302 303 301 301 301 300 299 298 298 298 297 296 295 295 294 293 293 292 292 291 291 290 290 288
311 312 315 312 307 305 308 310 311 313 313 310 312 313 312 310 306 308 308 305 304 303 302 301 300 298 297 298 297 297 296 295 295 294 293 293 292 291 291 291 290 290 289 287
314 313 317 316 313 306 307 307 308 310 311 314 315 314 312 310 307 306 304 303 303 303 304 302 300 298 299 298 297 296 295 296 295 294 293 291 291 291 290 289 289 288 288 286
313 312 316 319 316 312 312 310 308 310 312 312 312 313 311 311 311 311 311 310 310 306 303 302 302 299 296 297 297 296 296 296 294 293 292 290 289 289 288 288 287 287 286 285
314 315 315 314 314 314 314 315 313 313 313 316 315 313 311 310 310 309 309 309 306 306 305 303 302 300 299 298 297 297 296 295 294 292 290 289 289 288 287 286 286 286 285 284
312 316 316 316 314 314 316 314 313 314 314 314 313 314 312 313 313 313 313 312 308 308 308 307 302 301 298 296 298 296 295 294 293 291 290 289 287 286 284 284 285 284 283 282
313 314 316 317 314 314 316 315 315 314 313 314 315 313 311 311 311 312 312 311 310 309 308 304 302 301 299 297 298 296 296 293 292 291 289 287 285 283 282 282 283 281 281 280
312 313 314 318 316 318 314 311 312 313 312 311 312 312 311 311 311 311 310 310 310 309 306 303 300 300 299 302 300 298 295 292 290 289 287 284 283 281 280 280 280 279 279 278
311 313 315 317 318 315 313 311 311 311 312 310 311 311 311 311 310 310 308 303 305 306 304 302 300 300 301 300 300 295 290 289 288 286 285 283 282 280 279 278 278 277 277 276
311 312 315 317 319 319 313 305 307 310 314 304 303 304 305 305 310 310 303 301 300 299 296 295 295 296 296 295 293 290 287 286 286 285 284 282 281 279 278 278 277 277 277 276
305 310 312 313 315 315 302 302 305 314 308 301 301 302 303 304 303 301 299 298 298 297 295 294 293 290 291 291 290 287 285 285 285 284 283 281 280 279 278 277 276 275 275 275
299 299 303 304 308 314 298 301 303 301 300 299 298 298 298 298 298 297 296 296 295 295 296 294 287 288 291 290 289 285 283 284 284 282 280 278 278 277 277 276 274 275 274 273
295 297 294 294 297 295 297 293 293 297 299 295 294 294 295 295 295 294 294 294 294 295 295 295 289 288 287 287 287 284 283 283 282 280 278 277 276 276 275 275 273 273 272 272
289 290 291 289 291 289 290 292 294 291 291 291 290 289 290 292 292 293 293 294 294 294 294 295 295 291 287 286 284 285 284 284 281 277 275 275 275 274 273 273 272 272 271 272
289 289 287 288 288 288 289 290 288 288 287 286 285 285 287 288 289 289 290 290 290 291 292 293 293 290 289 290 286 285 284 281 278 276 274 273 273 272 272 272 272 272 272 273
289 289 288 288 289 286 287 286 285 281 281 281 282 282 282 282 282 283 283 285 286 287 289 290 289 290 290 289 287 285 281 279 277 275 273 273 272 272 271 271 271 272 272 274
Wind_Speed
5 4 10 23 16 9 5 7 7 16 9 7 15 18 20 18 11 13 18 18 14 20 21 23 36 41 40 43 44 47 47 44 41 39 38 35 35 32 30 29 27 26 23 20
3 13 18 6 7 12 11 15 14 12 13 10 12 19 18 10 15 16 16 17 19 19 8 10 24 33 40 45 45 45 47 46 45 44 42 32 37 35 33 30 28 28 25 23
18 8 16 14 12 9 18 12 20 18 11 6 9 12 12 11 15 13 17 19 18 20 12 10 12 29 34 37 43 48 49 49 48 45 42 31 29 28 32 33 32 32 29 26
11 13 13 7 8 14 22 10 11 8 3 14 5 20 9 7 14 13 19 18 21 15 10 9 12 19 32 38 42 46 48 49 47 45 41 39 34 30 36 37 40 36 31 28
9 3 8 14 24 10 23 6 9 2 5 5 5 8 4 9 9 11 16 18 18 14 12 11 16 28 34 36 41 45 47 45 43 47 47 45 34 31 30 34 37 37 33 30
11 1 4 7 2 6 2 1 0 2 2 13 9 10 4 7 11 7 15 16 16 15 10 9 15 21 25 30 35 39 43 44 45 47 48 48 40 35 33 35 37 38 35 32
4 14 9 5 4 2 3 5 4 4 0 12 12 11 23 7 6 11 14 16 17 6 8 9 12 13 20 30 35 38 41 39 45 48 48 48 44 42 42 40 40 41 39 36
3 14 11 8 20 10 10 13 6 8 8 18 5 9 6 12 13 11 15 14 7 9 9 11 14 15 22 29 34 35 35 35 43 46 45 45 46 45 43 45 42 43 44 41
6 10 1 3 1 10 4 6 13 2 2 3 11 14 9 4 10 9 15 7 8 10 9 10 8 13 21 27 34 39 38 37 38 43 42 45 46 44 43 43 43 43 43 39
7 12 7 1 1 2 5 0 2 2 4 8 16 13 17 15 18 17 8 11 10 7 8 8 9 12 21 26 31 35 38 41 40 41 42 42 46 47 43 43 44 44 41 36
5 6 19 4 7 9 1 4 5 2 4 15 19 17 4 10 9 9 9 11 10 9 10 9 10 13 20 23 32 38 39 40 41 44 45 43 46 47 47 44 44 45 40 37
4 3 4 13 8 7 6 11 14 10 12 5 9 15 28 16 8 7 6 7 7 7 9 8 9 8 17 25 28 35 34 35 45 41 42 45 43 44 43 44 43 42 40 36
7 4 5 4 14 5 6 8 7 8 1 15 17 18 26 17 14 5 8 9 7 7 8 7 8 11 14 20 24 30 34 42 39 39 42 38 42 44 44 43 43 40 39 36
11 9 12 15 16 7 11 12 7 11 13 23 21 29 29 32 29 28 24 24 26 13 10 9 8 8 8 18 23 27 32 39 37 39 39 38 41 43 41 42 41 41 39 37
10 11 19 28 33 32 30 32 32 25 27 23 28 20 26 34 24 26 24 22 12 11 8 8 9 9 12 16 25 29 31 33 38 36 35 37 38 40 41 41 40 40 39 38
10 17 18 20 23 28 32 32 32 31 30 26 29 31 37 37 34 35 35 29 16 17 17 17 11 14 14 12 23 29 30 34 38 34 35 34 37 40 40 40 41 41 39 37
17 10 16 29 22 23 21 32 35 35 28 25 27 34 36 33 29 31 30 20 16 19 17 10 13 13 13 15 27 24 33 33 35 33 32 35 37 38 39 42 42 42 41 39
20 19 13 19 17 23 22 22 31 34 35 33 32 31 29 30 30 24 20 21 21 16 11 9 8 11 17 27 28 28 26 31 31 29 31 36 37 36 37 40 41 40 40 39
20 16 10 10 15 19 8 17 23 24 33 31 29 26 28 27 25 26 11 17 17 16 9 9 8 12 20 22 24 24 24 28 27 27 31 36 37 35 35 36 35 35 33 33
13 17 14 16 17 17 5 17 22 21 17 15 15 17 14 11 6 6 15 15 18 18 11 9 15 10 12 12 11 18 17 22 23 27 28 32 36 37 36 34 34 37 35 32
11 10 18 19 21 14 11 15 13 5 3 9 11 10 12 6 7 13 19 18 16 13 12 16 16 8 10 6 9 10 12 14 17 25 29 33 34 34 34 35 34 32 30 28
11 5 11 9 17 21 26 4 13 12 3 10 13 10 10 11 12 13 18 19 17 16 16 16 7 10 9 9 12 11 11 12 16 23 27 28 31 31 34 35 31 32 31 29
7 4 5 4 8 22 10 16 20 13 12 9 12 14 14 16 16 17 16 17 14 14 11 18 11 13 15 14 16 12 11 15 19 23 26 27 28 30 33 33 29 27 28 26
6 11 8 15 6 26 22 16 8 13 12 12 10 13 14 16 16 17 14 14 13 14 13 19 13 10 10 16 19 21 17 23 26 26 23 25 30 29 30 28 30 28 28 26
10 14 8 17 16 19 15 15 11 15 9 10 15 16 16 15 16 17 17 16 16 15 16 19 12 10 13 21 24 26 26 28 27 26 26 25 24 27 27 27 32 30 26 32
11 15 12 17 20 10 20 15 10 12 14 13 14 16 17 16 18 19 18 17 17 17 20 15 19 19 26 23 26 27 28 32 26 22 23 28 28 28 27 29 24 21 27 21
Wind_Direction
213 155 204 223 206 234 222 258 252 266 260 188 233 241 252 255 252 242 252 256 246 245 248 229 219 208 198 197 194 192 191 198 197 195 196 201 202 206 208 213 215 215 213 208
250 221 226 244 206 232 245 257 262 271 260 189 249 245 257 242 247 242 238 244 245 248 237 227 204 191 187 188 190 186 192 197 199 199 200 201 204 207 210 212 215 218 216 212
222 219 218 223 239 262 248 252 261 262 292 247 286 271 241 243 243 252 257 250 255 250 226 231 183 189 183 181 183 187 192 199 199 202 201 201 206 210 211 213 214 216 217 216
245 236 232 193 216 206 258 219 248 254 255 272 144 291 220 245 242 238 247 252 252 244 222 216 186 183 184 187 185 187 194 199 199 202 197 197 199 202 209 207 212 214 216 215
239 221 207 234 237 201 263 224 241 212 236 318 194 277 178 197 241 244 243 245 256 252 213 199 189 192 191 181 183 188 194 196 197 204 205 202 207 211 210 210 214 212 213 215
246 337 240 213 149 196 167 139 184 53 81 264 180 205 189 189 215 230 242 255 252 252 216 203 195 182 181 181 181 187 191 195 199 205 206 208 207 206 203 207 209 208 210 213
310 230 220 151 192 274 169 87 300 310 2 256 180 218 250 287 255 212 227 239 242 230 168 169 163 174 173 181 185 188 191 194 199 206 208 211 210 210 211 211 207 207 209 209
241 284 164 185 206 194 200 202 182 214 254 275 133 246 253 215 236 231 229 231 204 179 188 186 181 181 183 187 190 191 194 196 202 206 209 213 214 214 216 220 216 213 211 212
215 262 288 155 144 160 182 171 217 325 85 356 268 271 290 284 267 259 240 243 215 196 200 189 181 189 187 189 193 194 199 204 206 208 208 213 215 215 216 220 220 218 215 215
232 265 226 170 166 345 184 224 104 212 204 246 268 272 274 284 271 256 274 228 231 219 206 200 198 200 200 197 195 200 204 206 208 211 212 212 214 219 219 221 218 217 217 212
9 292 273 109 194 182 129 259 246 294 202 250 261 271 219 254 249 253 245 236 213 213 213 207 209 210 203 202 202 204 207 209 210 213 212 212 215 218 219 221 222 220 218 212
146 201 257 275 278 234 258 236 232 239 255 237 271 264 262 273 280 261 333 274 255 231 220 208 204 193 195 206 207 208 210 210 217 215 212 214 214 217 217 220 220 217 212 209
152 210 234 263 289 248 210 200 217 243 246 245 257 262 269 283 281 283 294 272 274 253 253 232 208 208 214 213 210 210 211 216 217 212 213 209 213 215 216 214 213 207 207 208
161 196 207 241 244 271 266 272 251 237 252 254 245 260 271 269 265 274 273 254 262 264 252 231 227 220 209 216 215 215 218 220 214 210 207 205 208 210 208 211 209 206 207 208
192 237 226 235 242 245 246 254 256 251 245 245 253 247 257 264 275 270 272 266 258 261 239 235 240 231 226 220 218 219 220 214 212 204 202 204 205 206 205 205 204 203 206 207
208 242 242 238 229 234 244 252 255 255 254 253 253 262 260 262 262 265 267 268 273 261 257 255 234 235 236 218 220 219 217 210 205 198 201 198 198 197 198 198 198 199 201 203
235 225 231 250 231 236 243 235 239 247 247 243 246 241 250 261 260 263 275 287 263 256 248 231 227 229 240 233 226 218 220 209 198 196 193 189 187 188 189 193 194 197 199 199
268 261 243 245 248 240 238 225 228 239 247 254 250 256 252 254 262 263 269 274 283 277 260 251 247 247 238 245 240 234 213 199 189 186 184 186 184 183 182 185 188 189 193 194
228 242 260 263 250 255 247 220 231 235 249 254 266 263 257 265 265 275 339 358 324 308 276 249 282 258 265 263 250 216 192 185 178 183 182 184 181 176 176 180 181 182 183 187
248 242 254 270 275 267 80 353 326 271 259 7 12 20 3 343 251 286 7 353 341 346 356 348 354 344 328 308 249 187 178 173 187 188 185 183 181 179 178 178 178 185 190 188
294 289 264 256 261 261 9 338 304 233 29 3 345 354 345 1 9 334 328 323 326 325 329 340 343 330 313 289 217 182 181 209 194 186 186 185 184 181 179 178 178 174 174 177
286 293 283 287 274 267 358 8 345 348 302 6 323 343 333 313 307 312 308 306 311 315 317 320 295 289 284 238 208 195 197 210 198 189 184 180 181 177 178 178 176 173 170 169
292 4 321 305 312 314 325 308 303 305 319 319 316 324 306 299 310 306 303 303 303 302 302 304 284 290 276 245 222 208 211 198 194 192 182 179 181 179 180 172 170 167 168 166
285 295 294 312 295 301 302 322 327 339 335 331 355 334 327 321 324 312 308 302 304 304 300 299 296 284 275 259 239 238 229 204 199 187 182 178 176 174 179 174 173 174 176 171
266 297 285 288 286 299 298 317 340 332 358 351 330 320 312 310 304 301 303 296 293 293 294 290 280 271 262 268 255 245 227 209 187 181 175 177 180 178 176 184 178 177 187 185
257 262 270 279 291 307 302 326 326 352 331 323 317 316 311 309 301 302 298 299 299 293 294 292 282 270 274 266 253 245 225 200 185 184 182 181 181 182 186 177 175 187 178 180